{"data":{"norad_id":62145,"intl_designator":"2024-224G","name":"STARLINK-32374","alt_names":[],"object_type":"PAYLOAD","status":"ACTIVE","operator":null,"country":"US","launch_date":"2024-11-30","launch_site_code":"AFETR","launch_vehicle":null,"mission":null,"orbit_class":"UNKNOWN","rcs_meters":null,"size_class":null,"mass_kg":null,"dimensions":null,"purposes":["comms"],"wikipedia_slug":null,"has_3d_model":false,"image_url":null,"decayed_at":null,"tle_current":{"epoch":"2026-09-21T08:33:59.531328Z","epoch_age_seconds":108212,"freshness":"FRESH","line1":"1 62145U 24224G   26264.35693902  .00010783  00000+0  40078-3 0  9999","line2":"2 62145  43.0049 133.1785 0002504 265.2065  94.8500 15.27581395102404","mean_motion":15.27581395,"eccentricity":0.0002504,"inclination_deg":43.0049,"raan_deg":133.1785,"arg_perigee_deg":265.2065,"mean_anomaly_deg":94.85,"bstar":0.00040078,"rev_number":10240,"period_min":94.266662628475,"perigee_km":481.32687895849,"apogee_km":484.76295886348,"semimajor_km":6861.181918911,"source":"CELESTRAK","updated_at":"2026-09-22T09:00:49.530226Z"}}}